Miscellaneous Local Product
Issued by NWS North Platte, NE

Home | Current Version | Previous Version | Graphics & Text | Print | Product List | Glossary On
Versions: 1 2 3 4 5 6 7 8 9 10 11 12 13 14 15 16 17 18 19 20 21 22 23 24 25 26 27 28 29 30 31 32 33 34 35 36 37 38 39 40 41 42 43 44 45 46 47 48 49 50
000
AXUS43 KLBF 232310
MISLBF


WESTERN AND NORTH CENTRAL NEBRASKA HOURLY WEATHER ROUNDUP
NATIONAL WEATHER SERVICE NORTH PLATTE NE
600 PM CDT SUN JUL 23 2017

NOTE: "FAIR" INDICATES FEW OR NO CLOUDS BELOW 12,000 FEET WITH NO
SIGNIFICANT WEATHER AND/OR OBSTRUCTIONS TO VISIBILITY.

NOTE: STATIONS NOT REPORTING VARIABLES SUCH AS SKY/WEATHER OR
PRESSURE ARE PROVIDED BY RAWS AND APRS NETWORKS AND ARE NOT UNDER
NATIONAL WEATHER SERVICE QUALITY CONTROL.

...OBSERVATIONS IN AND NEAR THE EASTERN PANHANDLE OF NEBRASKA...

CITY           SKY/WX    TMP DP  RH WIND       PRES   REMARKS
PINE RIDGE     SUNNY     93  55  27 E9        29.99F HX  91
GORDON         FAIR      91  54  28 E10       30.01F
CHADRON        SUNNY     95  50  21 SE13      29.96F HX  92
ALLIANCE       SUNNY     95  38  13 CALM      30.02F HX  90
SIDNEY         SUNNY     94  38  14 SE10      30.08F
CRESCENT LAKE    N/A     96  50  20 S5          N/A  HX  93
$$

...OBSERVATIONS IN NORTHERN NEBRASKA AND FAR SOUTHERN SOUTH DAKOTA...

CITY           SKY/WX    TMP DP  RH WIND       PRES   REMARKS
WINNER         FAIR      93  50  23 NE9       29.99F HX  90
VALENTINE      SUNNY     95  44  17 E9        30.00F HX  91
THEDFORD       SUNNY     93  52  24 E13       30.02S HX  90
AINSWORTH      SUNNY     88  53  29 E3        30.02F
O`NEILL          N/A     84  58  42 NE3       30.01F
ORD            SUNNY     89  54  30 NE5       29.99F
BROKEN BOW     SUNNY     90  57  32 E7        30.00F
VALENTINE NWR    N/A     89  51  26 NE6         N/A
HALSEY           N/A     93  50  22 E7          N/A  HX  90
BUTTE            N/A     84  56  37 MISG        N/A
CHAMBERS         N/A     88  59  37 N3          N/A
EWING            N/A     86  61  43 CALM        N/A
$$

...OBSERVATIONS IN SOUTHWEST NEBRASKA AND FAR NORTHEAST COLORADO...

CITY           SKY/WX    TMP DP  RH WIND       PRES   REMARKS
HOLYOKE        FAIR      95  46  18 S8        30.05F HX  91
IMPERIAL       SUNNY     96  42  15 SW7       30.02F HX  92
OGALLALA       SUNNY     96  42  15 S6        30.02S HX  91
NORTH PLATTE   SUNNY     96  50  20 CALM      29.99F HX  93
MCCOOK         SUNNY     95  51  22 E9        29.99F HX  92
LEXINGTON      SUNNY     87  66  49 E9        30.00F
STAPLETON        N/A     94  53  24 CALM        N/A  HX  91
GOTHENBURG       N/A     90  58  34 E9          N/A
CALLAWAY         N/A     97  64  33 E7          N/A  HX  99
$$

...OBSERVATIONS IN CENTRAL LINCOLN COUNTY AREA...

CITY           SKY/WX    TMP DP  RH WIND       PRES   REMARKS
N.P. AIRPORT   SUNNY     96  50  20 CALM      29.99F HX  93
N.P. DOWNTOWN    N/A     95  51  22 CALM        N/A  HX  92
N.P. SOUTHEAST   N/A     97  54  23 CALM        N/A  HX  95
N.P. HILLCREST   N/A     96  48  19 S3          N/A  HX  92
$$

...SOME OBSERVATIONS FROM AROUND THE REGION...

CITY           SKY/WX    TMP DP  RH WIND       PRES   REMARKS
DENVER         CLOUDY    91  44  19 SE15G21   30.13F
LIMON          MOSUNNY   85  47  26 E14       30.16F
ASPEN          PTSUNNY   83  34  17 S9        30.24F
LARAMIE        MOSUNNY   81  45  28 S20G25    30.24F
CASPER         MOSUNNY   95  32  11 SE9       30.04F HX  90
CHEYENNE       PTSUNNY   87  42  20 S9G21     30.18F
SCOTTSBLUFF    SUNNY     96  49  20 E13       30.01F HX  93
GRAND ISLAND   FAIR      88  61  40 E12       29.99F
OMAHA          FAIR      88  58  36 N14       29.93F
SIOUX FALLS    FAIR      80  62  54 N9        29.99S
PIERRE         SUNNY     87  49  26 CALM      29.96F
RAPID CITY     SUNNY     92  45  19 SE12      29.99F
BISMARCK       SUNNY     85  56  37 SE9       29.98F
KANSAS CITY    FAIR      91  74  57 W7        29.89F HX 100
HILL CITY      FAIR      95  58  28 VRB7      29.98F HX  94
WICHITA        FAIR      92  70  48 N5        29.89F HX  97
DODGE CITY     FAIR      93  62  35 SE3       29.98F HX  93
OKLAHOMA CITY  PTSUNNY   90  67  46 E21       29.87R HX  93
DALLAS         PTSUNNY   99  72  41 S15G24    29.78F HX 108
AMARILLO       FAIR      92  57  30 E9        30.00F HX  90
$$




USA.gov is the U.S. government's official web portal to all federal, state and local government web resources and services.